Location: Alphen
(52.1351°N, 4.6549°E)
Time: 01:59:59
(UTC+00:00)

CZ-2C R/B - Pass Details

Date: 27 January 2021
Orbit: 668 x 784 km, 98.2° (Epoch: 26 February)

Event Time Altitude Azimuth Distance (km) Brightness Sun altitude
Rises 04:39:55 0° 10° (N) 3,275 5.9 -25.8°
Reaches altitude 10° 04:42:21 10° 3° (N) 2,350 5.1 -25.4°
Enters shadow 04:44:43 25° 346° (NNW) 1,565 3.9 -25.0°
